Weather History for Pompano Beach, FL

Change the Weather History Date:

Sunday, March 10, 2013

  Actual Average Record
Temperature  
Mean Temperature 70 °F -  
Max Temperature 75 °F 79 °F 91 °F (1964)
Min Temperature 66 °F 61 °F 40 °F (1957)
Cooling Degree Days 6    
Growing Degree Days 20 (Base 50)    
Moisture  
Dew Point 55 °F    
Average Humidity 58    
Maximum Humidity 73    
Minimum Humidity 48    
Precipitation  
Precipitation 0.00 in - - ()
Sea Level Pressure  
Sea Level Pressure 30.12 in    
Wind  
Wind Speed 11 mph (East)    
Max Wind Speed 17 mph    
Max Gust Speed 23 mph    
Visibility 10 miles    
Events      
Averages and records for this station are not official NWS values.
T = Trace of Precipitation, MM = Missing Value Source: NWS Daily Summary

Daily Weather History Graph

Daily Weather History Graph

Search for Another Location

Airport:

Trip Planner

Search our weather history database for the weather conditions in past years. The results will help you decide how hot, cold, wet, or windy it might be!

Date:

Astronomy

Mar. 10, 2013 Rise Set
Actual Time 7:34 AM EDT 7:26 PM EDT
Civil Twilight 7:11 AM EDT 7:49 PM EDT
Nautical Twilight 6:44 AM EDT 8:16 PM EDT
Astronomical Twilight 6:18 AM EDT 8:43 PM EDT
Moon 6:30 AM EDT (3/10) 6:33 PM EDT (3/10)
Length of Visible Light 12h 38m
Length of Day
11h 52m
Waning Crescent, 2% of the Moon is Illuminated
Mar 10
Waning Crescent
Mar 11
New
Mar 19
First Quarter
Mar 27
Full
Apr 3
Last Quarter

Hourly Weather History & Observations

Time (EDT) Temp. Dew Point Humidity Pressure Visibility Wind Dir Wind Speed Gust Speed Precip Events Conditions
12:53 AM 66.9 °F 51.1 °F 57% 30.16 in 10.0 mi East 9.2 mph - N/A   Partly Cloudy
1:53 AM 66.9 °F 51.1 °F 57% 30.13 in 10.0 mi East 9.2 mph - N/A   Partly Cloudy
3:53 AM 66.9 °F 53.1 °F 61% 30.11 in 10.0 mi East 9.2 mph - N/A   Overcast
4:53 AM 66.9 °F 52.0 °F 59% 30.10 in 10.0 mi East 6.9 mph - N/A   Overcast
5:53 AM 66.9 °F 52.0 °F 59% 30.12 in 10.0 mi ENE 9.2 mph - N/A   Overcast
6:53 AM 66.9 °F 51.1 °F 57% 30.12 in 10.0 mi East 12.7 mph - N/A   Mostly Cloudy
8:53 AM 68.0 °F 52.0 °F 56% 30.14 in 10.0 mi East 13.8 mph 18.4 mph N/A   Mostly Cloudy
9:53 AM 71.1 °F 51.1 °F 49% 30.15 in 10.0 mi East 13.8 mph - N/A   Scattered Clouds
10:53 AM 73.0 °F 53.1 °F 49% 30.16 in 10.0 mi ENE 13.8 mph 19.6 mph N/A   Scattered Clouds
11:53 AM 73.0 °F 53.1 °F 49% 30.16 in 10.0 mi ENE 12.7 mph - N/A   Scattered Clouds
12:53 PM 73.9 °F 53.1 °F 48% 30.15 in 10.0 mi ENE 13.8 mph - N/A   Scattered Clouds
1:53 PM 75.0 °F 54.0 °F 48% 30.12 in 10.0 mi East 13.8 mph - N/A   Scattered Clouds
2:53 PM 73.9 °F 55.0 °F 52% 30.10 in 10.0 mi East 13.8 mph - N/A   Partly Cloudy
3:53 PM 75.0 °F 55.9 °F 51% 30.09 in 10.0 mi East 11.5 mph - N/A   Clear
4:53 PM 73.0 °F 57.9 °F 59% 30.09 in 10.0 mi ENE 12.7 mph - N/A   Overcast
5:53 PM 72.0 °F 55.0 °F 55% 30.09 in 10.0 mi East 10.4 mph - N/A   Mostly Cloudy
6:53 PM 72.0 °F 54.0 °F 53% 30.09 in 10.0 mi East 11.5 mph - N/A   Clear
7:53 PM 71.1 °F 54.0 °F 55% 30.09 in 10.0 mi East 12.7 mph - N/A   Mostly Cloudy
8:53 PM 70.0 °F 59.0 °F 68% 30.10 in 10.0 mi ENE 10.4 mph - N/A   Scattered Clouds
9:53 PM 70.0 °F 57.0 °F 63% 30.12 in 10.0 mi East 9.2 mph - N/A   Partly Cloudy
10:53 PM 70.0 °F 61.0 °F 73% 30.12 in 10.0 mi ENE 15.0 mph - N/A   Mostly Cloudy
11:53 PM 70.0 °F 61.0 °F 73% 30.12 in 10.0 mi East 17.3 mph - N/A   Overcast
12:53 AM 70.0 °F 61.0 °F 73% 30.10 in 10.0 mi East 15.0 mph 23.0 mph N/A   Overcast